#timestamp,LO_Frequency,Hit,StdDev 
1624212015.3,286046999.5,N
1624212035.1,286046996.6,N
1624212055.9,286046996.5,N
1624212075.7,286046998.7,N
1624212095.6,286047001.1,N
1624212115.4,286046999.7,N
1624212135.2,286047002.6,N
1624212155.1,286047001.5,N
1624212156.0,286047001.5,N
1624212175.8,286047001.5,N
1624212195.7,286046999.7,N
1624212215.5,286047007.5,Y
1624212235.3,286047010.8,P
1624212255.2,286047010.5,N
1624212275.0,286047008.2,N
1624212305.9,286047012.0,E
1624212315.8,286047006.7,N
1624212335.7,286047000.7,P
1624212355.5,286047000.8,N
1624212375.4,286046999.8,N
1624212395.2,286047002.5,N
1624212415.0,286047001.7,N
1624212415.9,286047001.7,N
1624212435.8,286047002.0,N
1624212455.6,286047003.1,N
1624212475.4,286047005.2,N
1624212495.3,286047004.6,N
1624212515.1,286047007.6,Y
1624212535.9,286047007.4,P
1624212555.7,286047009.1,P
1624212575.5,286047008.8,P
1624212595.4,286047010.4,Y
1624212615.2,286047002.7,P
1624212635.1,286047002.0,N
1624212636.0,286047002.0,N
1624212655.8,286047000.5,N
1624212675.6,286047002.0,N
1624212695.5,286047002.2,N
1624212715.3,286047001.8,N
1624212735.1,286047002.0,N
1624212755.9,286047000.9,N
1624212775.7,286047000.4,N
1624212795.6,286047000.5,N
1624212815.4,286046999.8,N
1624212835.2,286047001.9,N
1624212855.1,286047006.0,Y
1624212856.0,286047006.0,P
1624212875.8,286047001.4,N
1624212895.7,286047005.8,N
1624212915.5,286047006.0,N
1624212935.3,286047002.9,N
1624212955.2,286047005.7,N
1624212975.0,286047005.9,Y
1624212975.9,286047005.9,P
1624212995.7,286047001.6,N
1624213015.6,286047003.6,N
1624213035.4,286047004.2,N
1624213055.3,286047003.9,N
1624213075.1,286047003.8,N
1624213095.8,286047003.7,Y
1624213115.7,286047000.9,P
1624213135.5,286046999.8,N
1624213155.4,286047000.1,N
1624213175.2,286046999.8,N
1624213195.0,286047000.2,N
1624213195.9,286047000.2,N
1624213215.8,286047002.6,N
1624213235.6,286047001.7,N
1624213255.5,286047001.4,N
1624213275.3,286047002.3,N
1624213295.1,286047002.0,N
1624213315.9,286047002.0,N
1624213335.7,286047004.4,Y
1624213355.6,286047000.4,P
1624213375.4,286047000.3,N
1624213395.2,286046998.1,P
1624213415.1,286047000.0,N
1624213416.0,286047000.0,N
1624213435.8,286047001.2,N
1624213455.6,286046999.3,N
1624213475.5,286046998.4,N
1624213495.3,286046998.2,N
1624213515.2,286047001.2,N
1624213535.9,286047000.4,N
1624213555.7,286047002.6,N
1624213575.6,286047002.5,N
1624213595.4,286047000.3,N
1624213615.2,286046998.6,N
1624213635.1,286046998.5,N
1624213636.0,286046998.5,N
1624213655.8,286047001.1,N
1624213675.7,286046998.9,N
1624213695.5,286046999.5,N
1624213715.3,286046998.7,N
1624213735.2,286046999.2,N
1624213755.0,286046996.6,N
1624213755.9,286046996.6,N
1624213775.8,286046999.2,N
1624213795.6,286046996.9,N
1624213815.4,286046996.6,N
1624213835.3,286046998.1,N
1624213855.1,286046999.5,N
1624213875.8,286046998.1,N
1624213895.7,286046998.3,N
1624213915.5,286047000.5,N
1624213935.4,286047000.7,N
1624213955.2,286047000.5,N
1624213975.0,286047000.6,N
1624213975.9,286047000.6,N
1624213995.8,286047000.6,N
1624214015.6,286047000.1,N
1624214035.5,286047002.8,N
1624214055.3,286047002.7,N
1624214075.1,286047002.4,N
1624214095.9,286047000.1,N
1624214115.7,286046999.9,N
1624214135.5,286046998.2,N
1624214155.4,286047001.0,N
1624214175.2,286047000.4,N
1624214195.1,286047000.4,N
1624214196.0,286047000.4,N
1624214215.8,286047002.4,N
1624214235.6,286047002.5,N
1624214255.5,286047002.7,N
1624214275.3,286047002.5,N
1624214295.1,286047001.9,N
1624214315.9,286047004.0,N
1624214335.7,286047004.2,N
1624214355.6,286047002.1,N
1624214375.4,286047001.5,N
1624214395.2,286047001.7,N
1624214415.1,286047003.9,N
1624214416.0,286047003.9,N
1624214435.8,286047002.2,N
1624214455.7,286047001.3,N
1624214475.5,286047005.2,Y
1624214495.4,286047005.9,P
1624214515.2,286047003.4,N
1624214535.0,286047003.5,N
1624214535.9,286047003.5,N
1624214555.8,286047005.9,Y
1624214575.6,286047002.6,P
1624214595.5,286047002.8,P
1624214615.3,286047002.2,P
1624214635.1,286047000.2,N
1624214655.9,286047003.5,Y
1624214675.7,286047004.1,P
1624214695.5,286047005.3,P
1624214715.4,286047005.7,P
1624214735.2,286047004.7,Y
1624214755.1,286047001.9,P
1624214756.0,286047001.9,N
1624214775.8,286047001.8,N
1624214795.6,286047004.1,Y
1624214815.5,286047002.4,P
1624214835.3,286047004.3,P
1624214855.2,286047003.7,P
1624214875.9,286047003.2,Y
1624214895.7,286047000.2,P
1624214915.6,286047001.0,N
1624214935.4,286046999.9,N
1624214955.3,286047002.7,N
1624214975.1,286047000.0,N
1624214976.0,286047000.0,N
1624214995.8,286047000.5,N
1624215015.7,286047000.1,N
1624215035.5,286047002.4,N
1624215055.3,286047002.8,N
1624215075.2,286047002.6,N
1624215095.0,286047002.3,N
1624215095.9,286047002.3,N
1624215115.8,286047003.2,N
1624215135.6,286047002.0,N
1624215155.5,286047003.8,Y
1624215175.3,286047001.5,P
1624215195.1,286047001.7,P
1624215215.9,286047002.7,P
1624215235.7,286047002.1,Y
1624215255.5,286046999.9,P
1624215275.4,286047002.1,N
1624215295.2,286047001.4,N
1624215315.1,286047004.3,Y
1624215316.0,286047004.3,P
1624215335.8,286047002.6,N
1624215355.6,286047002.6,N
1624215375.5,286047001.5,N
1624215395.3,286047001.8,N
1624215415.2,286047001.7,N
1624215435.9,286047001.5,N
1624215455.7,286047003.8,Y
1624215475.6,286047002.1,P
1624215495.4,286047000.5,P
1624215515.2,286046998.2,N
1624215535.1,286047000.9,N
1624215536.0,286047000.9,N
1624215555.8,286046999.0,N
1624215575.7,286046998.7,N
1624215595.5,286047001.2,N
